Location: Home
(42.5358°N, 72.7383°W)
Time: 18:22:34
(UTC-04:00)

Explorer 11/Cluster Stage 4 - Pass Details

Date: 11 August 2024
Orbit: 464 x 1208 km, 28.8° (Epoch: 19 September)

Event Time Altitude Azimuth Distance (km) Brightness Sun altitude
Rises 02:46:42 0° 253° (WSW) 3,663 - -27.0°
Reaches altitude 10° 02:49:53 10° 239° (WSW) 2,835 - -26.7°
Maximum altitude 02:55:01 22° 192° (SSW) 2,244 - -26.2°
Drops below altitude 10° 03:00:35 10° 146° (SSE) 3,099 - -25.7°
Exits shadow 03:00:38 10° 146° (SE) 3,110 9.4 -25.7°
Sets 03:04:16 0° 132° (SE) 4,099 10.2 -25.3°
